| time (UTC) | temp C | wind direction | speed KPH | gust KPH | rain 1hr cm | rain 24hr cm | rain mn cm | humidity % | barometer mb |
| 20260506044505 | 17 | 35 | 9.7 | 17.7 | 0.00 | 0.00 | 0.00 | 77 | 1009.1 |
| 20260506043003 | 18 | 17 | 9.7 | 19.3 | 0.00 | 0.00 | 0.00 | 77 | 1009.0 |
| 20260506041559 | 18 | 360 | 9.7 | 20.9 | 0.00 | 0.00 | 0.00 | 76 | 1009.1 |
| 20260506040056 | 19 | 325 | 8.0 | 17.7 | 0.00 | 0.00 | 0.00 | 75 | 1009.2 |
| 20260506034553 | 19 | 32 | 8.0 | 19.3 | 0.00 | 0.00 | 0.00 | 74 | 1008.8 |
| 20260506033049 | 20 | 24 | 8.0 | 19.3 | 0.00 | 0.00 | 0.00 | 73 | 1008.3 |
| 20260506031550 | 20 | 5 | 8.0 | 16.1 | 0.00 | 0.00 | 0.00 | 73 | 1007.9 |
| 20260506030044 | 20 | 5 | 9.7 | 19.3 | 0.00 | 0.00 | 0.00 | 73 | 1007.4 |
| 20260506024547 | 20 | 331 | 8.0 | 22.5 | 0.00 | 0.00 | 0.00 | 72 | 1007.3 |
| 20260506023038 | 21 | 53 | 4.8 | 19.3 | 0.00 | 0.00 | 0.00 | 72 | 1007.1 |
| 20260506021536 | 21 | 355 | 8.0 | 17.7 | 0.00 | 0.00 | 0.00 | 72 | 1006.9 |
| 20260506020034 | 22 | 21 | 9.7 | 19.3 | 0.00 | 0.00 | 0.00 | 71 | 1006.5 |
| 20260506014536 | 22 | 36 | 8.0 | 17.7 | 0.00 | 0.00 | 0.00 | 70 | 1005.9 |
| 20260506013029 | 22 | 67 | 6.4 | 19.3 | 0.00 | 0.00 | 0.00 | 70 | 1005.6 |
| 20260506011526 | 23 | 36 | 6.4 | 14.5 | 0.00 | 0.00 | 0.00 | 69 | 1005.1 |
| 20260506010032 | 23 | 323 | 6.4 | 14.5 | 0.00 | 0.00 | 0.00 | 69 | 1005.2 |
| 20260506004525 | 23 | 331 | 9.7 | 19.3 | 0.00 | 0.00 | 0.00 | 67 | 1005.2 |
| 20260506003025 | 24 | 325 | 1.6 | 14.5 | 0.00 | 0.00 | 0.00 | 66 | 1004.7 |
| 20260506001532 | 24 | 9 | 6.4 | 19.3 | 0.00 | 0.00 | 0.00 | 64 | 1004.7 |
| 20260506000023 | 25 | 36 | 9.7 | 22.5 | 0.00 | 0.00 | 0.00 | 63 | 1004.8 |
| 20260505234528 | 26 | 360 | 8.0 | 22.5 | 0.00 | 0.00 | 0.00 | 63 | 1004.4 |
| 20260505233022 | 26 | 317 | 9.7 | 20.9 | 0.00 | 0.00 | 0.00 | 63 | 1004.0 |
| 20260505231522 | 27 | 297 | 11.3 | 20.9 | 0.00 | 0.00 | 0.00 | 63 | 1003.8 |
| 20260505230043 | 28 | 333 | 9.7 | 17.7 | 0.00 | 0.00 | 0.00 | 60 | 1003.6 |
| 20260505224521 | 29 | 5 | 6.4 | 20.9 | 0.00 | 0.00 | 0.00 | 55 | 1003.5 |
| 20260505223020 | 30 | 47 | 6.4 | 16.1 | 0.00 | 0.00 | 0.00 | 52 | 1003.3 |
| 20260505221520 | 32 | 17 | 1.6 | 6.4 | 0.00 | 0.00 | 0.00 | 51 | 1003.0 |
| 20260505220029 | 31 | 267 | 1.6 | 9.7 | 0.00 | 0.00 | 0.00 | 53 | 1002.8 |
| 20260505214518 | 31 | 295 | 1.6 | 9.7 | 0.00 | 0.00 | 0.00 | 53 | 1003.0 |
| 20260505213016 | 32 | 265 | 3.2 | 12.9 | 0.00 | 0.00 | 0.00 | 50 | 1003.0 |
| 20260505211516 | 32 | 292 | 3.2 | 12.9 | 0.00 | 0.00 | 0.00 | 50 | 1003.0 |
| 20260505210015 | 32 | 137 | 1.6 | 8.0 | 0.00 | 0.00 | 0.00 | 52 | 1003.5 |
| 20260505204511 | 32 | 175 | 0.0 | 8.0 | 0.00 | 0.00 | 0.00 | 53 | 1003.7 |
| 20260505203015 | 32 | 279 | 3.2 | 12.9 | 0.00 | 0.00 | 0.00 | 52 | 1003.6 |
| 20260505201513 | 31 | 266 | 4.8 | 16.1 | 0.00 | 0.00 | 0.00 | 54 | 1004.0 |
| 20260505200007 | 31 | 192 | 0.0 | 9.7 | 0.00 | 0.00 | 0.00 | 55 | 1004.1 |
| 20260505194504 | 31 | 208 | 4.8 | 16.1 | 0.00 | 0.00 | 0.00 | 56 | 1004.2 |
| 20260505193001 | 31 | 148 | 1.6 | 9.7 | 0.00 | 0.00 | 0.00 | 59 | 1004.2 |
| 20260505191618 | 31 | 154 | 3.2 | 17.7 | 0.00 | 0.00 | 0.00 | 62 | 1004.1 |
| 20260505190058 | 30 | 164 | 3.2 | 12.9 | 0.00 | 0.00 | 0.00 | 62 | 1004.2 |
| 20260505184554 | 30 | 144 | 1.6 | 11.3 | 0.00 | 0.00 | 0.00 | 66 | 1004.3 |
| 20260505183051 | 30 | 165 | 3.2 | 11.3 | 0.00 | 0.00 | 0.00 | 67 | 1004.5 |
| 20260505181548 | 29 | 195 | 1.6 | 12.9 | 0.00 | 0.00 | 0.00 | 69 | 1004.6 |
| 20260505180059 | 28 | 118 | 3.2 | 14.5 | 0.00 | 0.00 | 0.00 | 70 | 1004.8 |
| 20260505174552 | 28 | 160 | 1.6 | 11.3 | 0.00 | 0.00 | 0.00 | 71 | 1004.9 |
| 20260505173039 | 27 | 150 | 3.2 | 8.0 | 0.00 | 0.00 | 0.00 | 73 | 1005.0 |
| 20260505171535 | 27 | 161 | 3.2 | 14.5 | 0.00 | 0.00 | 0.00 | 74 | 1005.1 |
| 20260505170034 | 27 | 123 | 3.2 | 11.3 | 0.00 | 0.00 | 0.00 | 74 | 1005.0 |
| 20260505164533 | 26 | 156 | 3.2 | 19.3 | 0.00 | 0.00 | 0.00 | 75 | 1005.0 |
| 20260505163030 | 26 | 154 | 4.8 | 12.9 | 0.00 | 0.00 | 0.00 | 76 | 1004.9 |
| 20260505161525 | 26 | 130 | 3.2 | 12.9 | 0.00 | 0.00 | 0.00 | 77 | 1004.6 |
| 20260505153017 | 24 | 179 | 4.8 | 16.1 | 0.00 | 0.00 | 0.00 | 81 | 1004.6 |
| 20260505151516 | 24 | 161 | 4.8 | 14.5 | 0.00 | 0.00 | 0.00 | 81 | 1004.6 |
| 20260505124505 | 21 | 196 | 3.2 | 11.3 | 0.00 | 0.00 | 0.00 | 88 | 1004.1 |
| 20260505123001 | 21 | 222 | 3.2 | 8.0 | 0.00 | 0.00 | 0.00 | 88 | 1003.9 |
| 20260505121600 | 21 | 169 | 3.2 | 8.0 | 0.00 | 0.00 | 0.00 | 88 | 1003.9 |
| 20260505120104 | 21 | 198 | 1.6 | 8.0 | 0.00 | 0.00 | 0.00 | 88 | 1003.9 |
| 20260505114602 | 21 | 127 | 1.6 | 11.3 | 0.00 | 0.00 | 0.00 | 88 | 1003.6 |
| 20260505113057 | 21 | 170 | 1.6 | 8.0 | 0.00 | 0.00 | 0.00 | 89 | 1003.6 |
| 20260505111557 | 21 | 146 | 1.6 | 12.9 | 0.00 | 0.00 | 0.00 | 89 | 1003.5 |
| 20260505101608 | 20 | 146 | 0.0 | 9.7 | 0.00 | 0.00 | 0.00 | 89 | 1003.3 |
| 20260505094551 | 20 | 157 | 1.6 | 14.5 | 0.00 | 0.00 | 0.00 | 89 | 1003.6 |
| 20260505093100 | 21 | 139 | 1.6 | 11.3 | 0.00 | 0.00 | 0.00 | 88 | 1003.7 |
| 20260505091549 | 21 | 144 | 3.2 | 8.0 | 0.00 | 0.00 | 0.00 | 88 | 1003.9 |
| 20260505090048 | 21 | 163 | 1.6 | 8.0 | 0.00 | 0.00 | 0.00 | 88 | 1003.9 |
| 20260505084545 | 21 | 177 | 3.2 | 9.7 | 0.00 | 0.00 | 0.00 | 87 | 1003.8 |
| 20260505083044 | 21 | 153 | 1.6 | 11.3 | 0.00 | 0.00 | 0.00 | 86 | 1004.2 |
| 20260505081556 | 21 | 173 | 1.6 | 12.9 | 0.00 | 0.00 | 0.00 | 85 | 1004.1 |
| 20260505080055 | 21 | 154 | 3.2 | 12.9 | 0.00 | 0.00 | 0.00 | 84 | 1004.0 |
| 20260505074538 | 21 | 170 | 3.2 | 9.7 | 0.00 | 0.00 | 0.00 | 83 | 1004.1 |
| 20260505073039 | 22 | 156 | 3.2 | 12.9 | 0.00 | 0.00 | 0.00 | 82 | 1004.3 |
| 20260505071533 | 22 | 146 | 3.2 | 11.3 | 0.00 | 0.00 | 0.00 | 81 | 1004.7 |
| 20260505070032 | 22 | 194 | 3.2 | 17.7 | 0.00 | 0.00 | 0.00 | 81 | 1004.9 |
| 20260505064530 | 22 | 167 | 1.6 | 17.7 | 0.00 | 0.00 | 0.00 | 80 | 1005.2 |
| 20260505063030 | 22 | 161 | 3.2 | 16.1 | 0.00 | 0.00 | 0.00 | 79 | 1005.5 |
| 20260505061533 | 22 | 163 | 3.2 | 11.3 | 0.00 | 0.00 | 0.00 | 79 | 1005.4 |